Texas General Land Office
 Texas General Land Office
 George P. Bush, Commissioner

 Oil Spill Prevention
 & Response

Texas Automated Buoy System
Real Time Ocean Observations
Supporting Oil Spill Prevention and
Response since 1995
Geochemical and Environmental Research Group

NOAA - NDBC Buoy 42020 -- Texas Automated Buoy System

NBDC Buoy 42020
Corpus Christi, TX
Conditions at 07/14/2020 19:30 UTC (07/14/2020 14:30 CDT)
26° 57.0000'N   96° 42.0000'W
50nm Southeast of Corpus Christi, TX
Anemometer height: 5m
Water Depth: 252 feet (77 meters)
Wind: 6.0 m/s (11.7 kts)
          From 160°T (SSE)
Wind Gust: 7.00 m/s (13.6 kts) Pressure: 1014.2 mb (29.95 inHg)
Air Temp: 29°C (84 °F) Dewpoint: 26°C (78°F) Relative Humidity: 82%
Sea Surf Temp: -99 °C (-146 °F) Wave Height: 1.0m (3.3 ft) Wave Period: 6
  


IMPORTANT: Notice to Mariners


   Date      Time    Speed     Dir   Gust    AtmPr   AirT   DewPt   WaterT  RelH  WvHt  WvPer
          |  (UTC) | (m/s) |  (°T) | (m/s) |  (mb) |  (°C) |  (°C) |  (°C) | (%) | (m) | (s) |
==========+========+=======+=======+=======+=======+=======+=======+=======+=====+=====+=====+
07/14/2020 00:00:00     8.0     160    10.0 1011.60    29.2    25.9   -99.0    82 -99.0  -99
07/14/2020 00:10:00     8.0     160    10.0 1011.70    29.2    26.1   -99.0    83 -99.0  -99
07/14/2020 00:20:00     8.0     160    10.0 1011.70    29.2    26.0   -99.0    82 -99.0  -99
07/14/2020 00:30:00     8.0     160    10.0 1011.70    29.2    25.9   -99.0    82 -99.0  -99
07/14/2020 00:40:00     8.0     160     9.0 1011.80    29.2    25.9   -99.0    82   1.1  -99
07/14/2020 00:50:00     8.0     160     9.0 1011.80    29.1    25.9   -99.0    82   1.1    5
07/14/2020 01:00:00     7.0     160     9.0 1011.90    29.1    26.1   -99.0    83 -99.0  -99
07/14/2020 01:10:00     7.0     160     9.0 1011.90    29.0    26.0   -99.0    83 -99.0  -99
07/14/2020 01:20:00     8.0     160     9.0 1011.80    29.0    26.0   -99.0    83 -99.0  -99
07/14/2020 01:30:00     7.0     160     9.0 1011.90    29.0    26.0   -99.0    83 -99.0  -99
07/14/2020 01:40:00     7.0     150     9.0 1011.90    29.0    26.0   -99.0    83   1.0  -99
07/14/2020 01:50:00     8.0     160     9.0 1012.00    29.0    26.0   -99.0    83   1.0    5
07/14/2020 02:00:00     8.0     150     9.0 1012.20    29.0    25.9   -99.0    83 -99.0  -99
07/14/2020 02:10:00     7.0     150     9.0 1012.30    29.0    25.8   -99.0    82 -99.0  -99
07/14/2020 02:20:00     7.0     160     9.0 1012.30    29.0    25.9   -99.0    83 -99.0  -99
07/14/2020 02:30:00     7.0     160     9.0 1012.40    29.0    26.0   -99.0    83 -99.0  -99
07/14/2020 02:40:00     8.0     160     9.0 1012.40    28.9    25.9   -99.0    83 -99.0  -99
07/14/2020 02:50:00     8.0     150     9.0 1012.60    28.9    25.8   -99.0    83   1.0    5
07/14/2020 03:00:00     7.0     150     9.0 1012.80    28.9    25.8   -99.0    83 -99.0  -99
07/14/2020 03:10:00     7.0     150     9.0 1012.90    28.9    25.8   -99.0    83 -99.0  -99
07/14/2020 03:20:00     7.0     150     9.0 1013.00    28.9    25.7   -99.0    82 -99.0  -99
07/14/2020 03:30:00     8.0     150     9.0 1013.00    28.9    25.7   -99.0    82 -99.0  -99
07/14/2020 03:40:00     8.0     150    10.0 1013.00    28.9    25.8   -99.0    83 -99.0  -99
07/14/2020 03:50:00     8.0     150    10.0 1013.00    28.9    25.8   -99.0    83   0.9    5
07/14/2020 04:00:00     8.0     160    10.0 1012.90    28.9    25.9   -99.0    83 -99.0  -99
07/14/2020 04:10:00     9.0     160    10.0 1012.80    28.8    25.8   -99.0    83 -99.0  -99
07/14/2020 04:20:00     9.0     160    11.0 1013.00    28.8    25.8   -99.0    83 -99.0  -99
07/14/2020 04:30:00     9.0     160    11.0 1012.80    28.8    25.9   -99.0    84 -99.0  -99
07/14/2020 04:40:00     9.0     160    11.0 1012.80    28.8    25.8   -99.0    83 -99.0  -99
07/14/2020 04:50:00    10.0     160    12.0 1012.60    28.8    25.8   -99.0    83   1.0    5
07/14/2020 05:00:00    10.0     170    12.0 1012.50    28.8    25.8   -99.0    83 -99.0  -99
07/14/2020 05:10:00    10.0     160    12.0 1012.40    28.8    25.8   -99.0    83 -99.0  -99
07/14/2020 05:20:00     9.0     170    11.0 1012.40    28.8    25.9   -99.0    84 -99.0  -99
07/14/2020 05:30:00     9.0     170    12.0 1012.60    28.8    25.8   -99.0    83 -99.0  -99
07/14/2020 05:40:00     9.0     160    11.0 1012.70    28.8    25.7   -99.0    83   1.1  -99
07/14/2020 05:50:00     9.0     160    10.0 1012.60    28.8    25.7   -99.0    83   1.1    5
07/14/2020 06:00:00     9.0     160    12.0 1012.50    28.8    25.6   -99.0    82 -99.0  -99
07/14/2020 06:10:00     9.0     170    11.0 1012.70    28.8    25.5   -99.0    82 -99.0  -99
07/14/2020 06:20:00     8.0     170    10.0 1012.80    28.9    25.6   -99.0    82 -99.0  -99
07/14/2020 06:30:00     8.0     170    10.0 1012.60    28.8    25.5   -99.0    82 -99.0  -99
07/14/2020 06:40:00     9.0     170    11.0 1012.60    28.8    25.5   -99.0    82   1.1  -99
07/14/2020 06:50:00     9.0     170    11.0 1012.50    28.8    25.5   -99.0    82   1.1    5
07/14/2020 07:00:00     8.0     170    10.0 1012.50    28.8    25.5   -99.0    82 -99.0  -99
07/14/2020 07:10:00     9.0     170    11.0 1012.60    28.7    25.3   -99.0    81 -99.0  -99
07/14/2020 07:20:00     9.0     170    10.0 1012.80    28.8    25.3   -99.0    81 -99.0  -99
07/14/2020 07:30:00     9.0     170    10.0 1012.60    28.8    25.4   -99.0    81 -99.0  -99
07/14/2020 07:40:00     8.0     170    10.0 1012.60    28.7    25.4   -99.0    82 -99.0  -99
07/14/2020 07:50:00     9.0     170    11.0 1013.20    28.7    25.4   -99.0    82   1.2  -99
07/14/2020 08:00:00     9.0     170    10.0 1012.40    28.7    25.4   -99.0    82 -99.0  -99
07/14/2020 08:10:00     9.0     180    11.0 1012.40    28.6    25.3   -99.0    82 -99.0  -99
07/14/2020 08:20:00     9.0     170    10.0 1012.50    28.6    25.3   -99.0    82 -99.0  -99
07/14/2020 08:30:00     9.0     170    10.0 1012.40    28.6    25.3   -99.0    82 -99.0  -99
07/14/2020 08:40:00     9.0     180    11.0 1012.20    28.5    25.3   -99.0    82 -99.0  -99
07/14/2020 08:50:00     9.0     180    10.0 1012.20    28.5    25.4   -99.0    83   1.2    5
07/14/2020 09:00:00     8.0     180    11.0 1012.20    28.5    25.5   -99.0    83 -99.0  -99
07/14/2020 09:10:00     8.0     180    10.0 1012.20    28.5    25.4   -99.0    83 -99.0  -99
07/14/2020 09:20:00     8.0     180    11.0 1012.40    28.5    25.4   -99.0    83 -99.0  -99
07/14/2020 09:30:00     8.0     180     9.0 1012.50    28.5    25.5   -99.0    83 -99.0  -99
07/14/2020 09:40:00     8.0     180    10.0 1012.20    28.4    25.4   -99.0    83   1.1  -99
07/14/2020 09:50:00     8.0     180    10.0 1012.10    28.4    25.4   -99.0    83   1.1    5
07/14/2020 10:00:00     8.0     180    10.0 1012.20    28.4    25.4   -99.0    83 -99.0  -99
07/14/2020 10:10:00     8.0     180    10.0 1012.30    28.4    25.4   -99.0    83 -99.0  -99
07/14/2020 10:20:00     8.0     180     9.0 1012.30    28.3    25.3   -99.0    83 -99.0  -99
07/14/2020 10:30:00     8.0     180    10.0 1012.20    28.3    25.3   -99.0    83 -99.0  -99
07/14/2020 10:40:00     8.0     180     9.0 1012.30    28.2    25.3   -99.0    84   1.1  -99
07/14/2020 10:50:00     7.0     180     9.0 1012.30    28.2    25.2   -99.0    83   1.1    5
07/14/2020 11:00:00     7.0     180     9.0 1012.30    28.3    25.3   -99.0    83 -99.0  -99
07/14/2020 11:10:00     7.0     180     9.0 1012.30    28.3    25.3   -99.0    83 -99.0  -99
07/14/2020 11:20:00     8.0     180    10.0 1012.20    28.3    25.3   -99.0    83 -99.0  -99
07/14/2020 11:30:00     8.0     180    10.0 1012.40    28.2    25.2   -99.0    83 -99.0  -99
07/14/2020 11:40:00     8.0     180    10.0 1012.50    28.3    25.2   -99.0    83 -99.0  -99
07/14/2020 11:50:00     8.0     180     9.0 1012.70    28.3    25.2   -99.0    83   1.1    5
07/14/2020 12:00:00     8.0     180    10.0 1012.70    28.3    25.2   -99.0    83 -99.0  -99
07/14/2020 12:10:00     8.0     180    10.0 1012.80    28.3    25.1   -99.0    82 -99.0  -99
07/14/2020 12:20:00     7.0     180     9.0 1013.00    28.3    25.1   -99.0    82 -99.0  -99
07/14/2020 12:30:00     7.0     180     9.0 1013.20    28.4    25.1   -99.0    82 -99.0  -99
07/14/2020 12:40:00     7.0     180     9.0 1013.40    28.5    25.1   -99.0    81 -99.0  -99
07/14/2020 12:50:00     7.0     180     8.0 1013.40    28.5    25.0   -99.0    81   1.0    6
07/14/2020 13:00:00     7.0     180     9.0 1013.40    28.5    25.0   -99.0    81 -99.0  -99
07/14/2020 13:10:00     7.0     180     8.0 1013.70    28.6    25.1   -99.0    81 -99.0  -99
07/14/2020 13:20:00     7.0     180     8.0 1013.80    28.6    25.1   -99.0    81 -99.0  -99
07/14/2020 13:30:00     7.0     180     8.0 1013.90    28.6    25.1   -99.0    81 -99.0  -99
07/14/2020 13:40:00     7.0     170     8.0 1014.00    28.6    25.1   -99.0    81 -99.0  -99
07/14/2020 13:50:00     7.0     180     9.0 1014.00    28.6    25.0   -99.0    80   1.0    6
07/14/2020 14:00:00     7.0     170     8.0 1014.10    28.6    25.1   -99.0    81 -99.0  -99
07/14/2020 14:10:00     7.0     170     9.0 1014.20    28.7    25.2   -99.0    81 -99.0  -99
07/14/2020 14:20:00     6.0     170     8.0 1014.30    28.6    25.1   -99.0    81 -99.0  -99
07/14/2020 14:30:00     6.0     170     7.0 1014.30    28.7    25.1   -99.0    80 -99.0  -99
07/14/2020 14:40:00     6.0     170     8.0 1014.20    28.6    25.1   -99.0    81 -99.0  -99
07/14/2020 14:50:00     7.0     180     8.0 1014.20    28.6    25.0   -99.0    80   1.0    6
07/14/2020 15:00:00     7.0     180     8.0 1014.20    28.7    25.0   -99.0    80 -99.0  -99
07/14/2020 15:10:00     6.0     170     8.0 1014.20    28.7    25.1   -99.0    80 -99.0  -99
07/14/2020 15:20:00     6.0     170     8.0 1014.10    28.7    25.2   -99.0    81 -99.0  -99
07/14/2020 15:30:00     7.0     170     8.0 1014.10    28.6    25.1   -99.0    81 -99.0  -99
07/14/2020 15:40:00     6.0     170     8.0 1014.20    28.6    25.1   -99.0    81 -99.0  -99
07/14/2020 15:50:00     6.0     170     7.0 1014.20    28.6    25.1   -99.0    81   1.0    6
07/14/2020 16:00:00     6.0     170     7.0 1014.40    28.6    25.1   -99.0    81 -99.0  -99
07/14/2020 16:10:00     6.0     170     7.0 1014.40    28.6    25.1   -99.0    81 -99.0  -99
07/14/2020 16:20:00     6.0     170     7.0 1014.40    28.7    25.2   -99.0    81 -99.0  -99
07/14/2020 16:30:00     6.0     170     7.0 1014.50    28.7    25.2   -99.0    81 -99.0  -99
07/14/2020 16:40:00     5.0     160     7.0 1014.50    28.7    25.3   -99.0    81 -99.0  -99
07/14/2020 16:50:00     5.0     160     6.0 1014.60    28.7    25.4   -99.0    82   1.0    6
07/14/2020 17:00:00     5.0     160     6.0 1014.50    28.7    25.4   -99.0    82 -99.0  -99
07/14/2020 17:10:00     5.0     160     7.0 1014.50    28.7    25.4   -99.0    82 -99.0  -99
07/14/2020 17:20:00     6.0     160     7.0 1014.50    28.7    25.3   -99.0    81 -99.0  -99
07/14/2020 17:30:00     6.0     160     7.0 1014.40    28.8    25.3   -99.0    81 -99.0  -99
07/14/2020 17:40:00     6.0     160     7.0 1014.40    28.8    25.5   -99.0    82 -99.0  -99
07/14/2020 17:50:00     6.0     160     7.0 1014.40    28.8    25.5   -99.0    82   1.0    6
07/14/2020 18:00:00     6.0     160     7.0 1014.40    28.9    25.6   -99.0    82 -99.0  -99
07/14/2020 18:10:00     6.0     160     7.0 1014.40    28.8    25.5   -99.0    82 -99.0  -99
07/14/2020 18:20:00     6.0     160     7.0 1014.30    28.9    25.6   -99.0    82 -99.0  -99
07/14/2020 18:30:00     5.0     160     7.0 1014.40    28.9    25.6   -99.0    82 -99.0  -99
07/14/2020 18:40:00     6.0     160     7.0 1014.40    28.9    25.6   -99.0    82 -99.0  -99
07/14/2020 18:50:00     5.0     160     6.0 1014.20    29.0    25.7   -99.0    82   1.0    6
07/14/2020 19:00:00     5.0     160     7.0 1014.30    29.0    25.7   -99.0    82 -99.0  -99
07/14/2020 19:10:00     5.0     160     6.0 1014.30    29.0    25.7   -99.0    82 -99.0  -99
07/14/2020 19:20:00     6.0     160     7.0 1014.30    29.0    25.7   -99.0    82 -99.0  -99
07/14/2020 19:30:00     6.0     160     7.0 1014.20    29.1    25.8   -99.0    82 -99.0  -99